| time (UTC) | temp F | wind direction | speed knots | gust knots | rain 1hr in | rain 24hr in | rain mn in | humidity % | barometer mb |
| 20260505121524 | 56 | 283 | 0.0 | 0.0 | 0.00 | 0.01 | 0.00 | 82 | 1010.0 |
| 20260505120523 | 56 | 42 | 0.0 | 0.0 | 0.00 | 0.01 | 0.00 | 82 | 1010.0 |
| 20260505115524 | 56 | 220 | 0.0 | 0.0 | 0.00 | 0.01 | 0.00 | 82 | 1010.1 |
| 20260505115014 | 55 | 269 | 0.0 | 0.0 | 0.00 | 0.01 | 0.00 | 83 | 1010.1 |
| 20260505113526 | 55 | 320 | 0.0 | 0.0 | 0.00 | 0.01 | 0.00 | 84 | 1010.2 |
| 20260505113008 | 54 | 287 | 0.0 | 0.0 | 0.00 | 0.01 | 0.00 | 85 | 1010.1 |
| 20260505111523 | 54 | 22 | 0.0 | 0.0 | 0.00 | 0.01 | 0.00 | 86 | 1010.4 |
| 20260505110524 | 54 | 312 | 0.0 | 0.0 | 0.00 | 0.01 | 0.00 | 86 | 1010.5 |
| 20260505101523 | 53 | 257 | 0.0 | 0.0 | 0.00 | 0.01 | 0.00 | 88 | 1010.5 |
| 20260505100524 | 52 | 46 | 0.0 | 0.0 | 0.00 | 0.01 | 0.00 | 88 | 1010.7 |
| 20260505095523 | 52 | 315 | 0.0 | 0.0 | 0.00 | 0.01 | 0.00 | 88 | 1010.8 |
| 20260505095009 | 52 | 346 | 0.0 | 0.0 | 0.00 | 0.01 | 0.00 | 89 | 1010.7 |
| 20260505094447 | 52 | 96 | 0.0 | 0.0 | 0.00 | 0.01 | 0.00 | 89 | 1010.6 |
| 20260505092526 | 52 | 255 | 0.0 | 0.0 | 0.00 | 0.01 | 0.00 | 90 | 1010.6 |
| 20260505091524 | 52 | 336 | 0.0 | 0.0 | 0.00 | 0.01 | 0.00 | 90 | 1010.6 |
| 20260505090523 | 52 | 173 | 0.0 | 0.0 | 0.00 | 0.01 | 0.00 | 90 | 1010.6 |
| 20260505085523 | 51 | 292 | 0.0 | 0.0 | 0.00 | 0.01 | 0.00 | 91 | 1010.5 |
| 20260505084524 | 51 | 102 | 0.0 | 0.0 | 0.00 | 0.01 | 0.00 | 91 | 1010.6 |
| 20260505083523 | 51 | 335 | 0.0 | 0.0 | 0.00 | 0.01 | 0.00 | 91 | 1010.6 |
| 20260505082524 | 51 | 323 | 0.0 | 0.0 | 0.00 | 0.01 | 0.00 | 91 | 1010.6 |
| 20260505081523 | 51 | 328 | 0.0 | 0.0 | 0.00 | 0.01 | 0.00 | 91 | 1010.8 |
| 20260505080522 | 51 | 127 | 0.0 | 0.0 | 0.00 | 0.01 | 0.00 | 91 | 1010.7 |
| 20260505075523 | 51 | 313 | 0.0 | 0.0 | 0.00 | 0.01 | 0.00 | 91 | 1010.6 |
| 20260505074520 | 51 | 232 | 0.0 | 0.0 | 0.00 | 0.01 | 0.00 | 90 | 1010.6 |
| 20260505073520 | 51 | 291 | 0.0 | 0.0 | 0.00 | 0.01 | 0.00 | 91 | 1010.6 |
| 20260505072519 | 51 | 355 | 0.0 | 0.0 | 0.00 | 0.01 | 0.00 | 91 | 1010.8 |
| 20260505071520 | 51 | 310 | 0.0 | 0.0 | 0.00 | 0.01 | 0.00 | 91 | 1010.9 |
| 20260505070519 | 51 | 261 | 0.0 | 0.0 | 0.00 | 0.01 | 0.00 | 91 | 1010.8 |
| 20260505065520 | 51 | 324 | 0.0 | 0.0 | 0.00 | 0.01 | 0.00 | 91 | 1010.8 |
| 20260505064520 | 51 | 344 | 0.0 | 0.0 | 0.00 | 0.01 | 0.00 | 91 | 1010.9 |
| 20260505063520 | 51 | 313 | 0.0 | 0.0 | 0.00 | 0.01 | 0.00 | 91 | 1011.0 |
| 20260505062519 | 51 | 355 | 0.0 | 0.0 | 0.00 | 0.01 | 0.00 | 91 | 1011.0 |
| 20260505062006 | 51 | 324 | 0.0 | 0.0 | 0.00 | 0.01 | 0.00 | 91 | 1011.0 |
| 20260505060521 | 51 | 24 | 0.0 | 0.0 | 0.00 | 0.01 | 0.00 | 91 | 1011.0 |
| 20260505055520 | 51 | 355 | 0.0 | 0.0 | 0.00 | 0.01 | 0.00 | 92 | 1010.7 |
| 20260505054520 | 51 | 243 | 0.0 | 0.0 | 0.00 | 0.01 | 0.00 | 92 | 1010.7 |
| 20260505053956 | 51 | 276 | 0.0 | 0.0 | 0.00 | 0.01 | 0.00 | 92 | 1010.7 |
| 20260505053005 | 51 | 71 | 0.0 | 0.0 | 0.00 | 0.01 | 0.00 | 92 | 1010.8 |
| 20260505051520 | 51 | 307 | 0.0 | 0.0 | 0.00 | 0.01 | 0.00 | 92 | 1010.8 |
| 20260505050521 | 51 | 313 | 0.0 | 0.0 | 0.00 | 0.01 | 0.00 | 92 | 1010.8 |
| 20260505041518 | 51 | 284 | 0.0 | 0.0 | 0.00 | 0.01 | 0.00 | 92 | 1011.0 |
| 20260505040518 | 51 | 25 | 0.0 | 0.0 | 0.00 | 0.01 | 0.00 | 92 | 1011.0 |
| 20260505035519 | 51 | 334 | 0.0 | 0.0 | 0.00 | 0.01 | 0.00 | 92 | 1011.3 |
| 20260505034518 | 51 | 326 | 0.0 | 0.0 | 0.00 | 0.01 | 0.00 | 92 | 1011.1 |
| 20260505033519 | 52 | 190 | 0.0 | 0.0 | 0.00 | 0.01 | 0.00 | 92 | 1011.2 |
| 20260505033002 | 52 | 169 | 0.0 | 0.0 | 0.00 | 0.01 | 0.00 | 92 | 1011.3 |
| 20260505032006 | 52 | 230 | 0.0 | 0.0 | 0.00 | 0.01 | 0.00 | 92 | 1011.5 |
| 20260505030519 | 52 | 274 | 0.0 | 0.0 | 0.00 | 0.01 | 0.00 | 92 | 1011.5 |
| 20260505025518 | 52 | 355 | 0.0 | 0.0 | 0.00 | 0.01 | 0.00 | 92 | 1011.5 |
| 20260505024951 | 52 | 258 | 0.0 | 0.0 | 0.00 | 0.01 | 0.00 | 92 | 1011.5 |
| 20260505023519 | 52 | 355 | 0.0 | 0.0 | 0.00 | 0.01 | 0.00 | 92 | 1011.7 |
| 20260505022517 | 52 | 355 | 0.0 | 0.0 | 0.00 | 0.01 | 0.00 | 92 | 1011.6 |
| 20260505021515 | 52 | 199 | 0.0 | 0.0 | 0.00 | 0.01 | 0.00 | 92 | 1011.6 |
| 20260505020957 | 52 | 94 | 0.0 | 0.0 | 0.00 | 0.01 | 0.00 | 92 | 1011.6 |
| 20260505015514 | 52 | 241 | 0.0 | 0.0 | 0.00 | 0.01 | 0.00 | 92 | 1011.6 |
| 20260505014515 | 52 | 335 | 0.0 | 0.0 | 0.00 | 0.01 | 0.00 | 93 | 1011.8 |
| 20260505013515 | 52 | 263 | 0.0 | 0.0 | 0.00 | 0.01 | 0.00 | 93 | 1011.9 |
| 20260505013148 | 52 | 112 | 0.0 | 0.0 | 0.00 | 0.01 | 0.00 | 93 | 1011.9 |
| 20260505013037 | 52 | 124 | 0.0 | 0.0 | 0.00 | 0.01 | 0.00 | 93 | 1011.9 |
| 20260505010514 | 52 | 55 | 0.0 | 0.0 | 0.00 | 0.01 | 0.00 | 93 | 1011.9 |
| 20260505005515 | 53 | 319 | 0.0 | 0.0 | 0.00 | 0.01 | 0.00 | 94 | 1012.0 |
| 20260505004514 | 53 | 340 | 0.0 | 0.0 | 0.00 | 0.01 | 0.00 | 94 | 1012.0 |
| 20260505003514 | 53 | 355 | 0.0 | 0.0 | 0.00 | 0.01 | 0.00 | 94 | 1012.0 |
| 20260505002513 | 53 | 305 | 0.0 | 0.0 | 0.00 | 0.01 | 0.00 | 95 | 1012.0 |
| 20260505001513 | 53 | 84 | 0.0 | 0.0 | 0.00 | 0.01 | 0.00 | 94 | 1011.9 |
| 20260505000512 | 53 | 355 | 0.0 | 0.0 | 0.00 | 0.01 | 0.00 | 95 | 1012.0 |
| 20260504235512 | 53 | 336 | 0.0 | 0.0 | 0.00 | 0.01 | 0.00 | 95 | 1012.2 |
| 20260504234511 | 54 | 287 | 0.0 | 0.0 | 0.00 | 0.01 | 0.00 | 95 | 1012.2 |
| 20260504233512 | 54 | 315 | 0.0 | 0.0 | 0.00 | 0.01 | 0.00 | 95 | 1012.3 |
| 20260504233447 | 54 | 327 | 0.0 | 0.0 | 0.00 | 0.01 | 0.00 | 95 | 1012.3 |
| 20260504231512 | 54 | 318 | 0.0 | 0.0 | 0.00 | 0.01 | 0.00 | 95 | 1012.2 |
| 20260504230517 | 54 | 355 | 0.0 | 0.0 | 0.00 | 0.01 | 0.00 | 95 | 1012.3 |
| 20260504225511 | 54 | 319 | 0.0 | 0.0 | 0.00 | 0.01 | 0.00 | 95 | 1012.4 |
| 20260504224513 | 54 | 332 | 0.0 | 0.0 | 0.00 | 0.01 | 0.00 | 95 | 1012.4 |
| 20260504223509 | 53 | 26 | 0.0 | 0.0 | 0.00 | 0.01 | 0.00 | 95 | 1012.6 |
| 20260504222508 | 53 | 340 | 0.0 | 0.0 | 0.00 | 0.01 | 0.00 | 95 | 1012.6 |
| 20260504221508 | 53 | 340 | 0.0 | 0.0 | 0.00 | 0.01 | 0.00 | 95 | 1012.6 |
| 20260504220508 | 53 | 340 | 0.0 | 0.0 | 0.00 | 0.01 | 0.00 | 95 | 1012.7 |
| 20260504215509 | 53 | 0 | 0.0 | 0.0 | 0.00 | 0.01 | 0.01 | 95 | 1012.8 |
| 20260504214508 | 53 | 9 | 0.0 | 0.0 | 0.00 | 0.01 | 0.01 | 95 | 1013.2 |
| 20260504213509 | 53 | 56 | 0.0 | 0.0 | 0.00 | 0.01 | 0.01 | 94 | 1013.1 |
| 20260504212943 | 52 | 65 | 0.0 | 0.0 | 0.00 | 0.01 | 0.01 | 94 | 1013.2 |
| 20260504211507 | 52 | 346 | 0.0 | 0.0 | 0.00 | 0.01 | 0.01 | 94 | 1013.4 |
| 20260504210506 | 52 | 346 | 0.0 | 0.0 | 0.00 | 0.01 | 0.01 | 94 | 1013.4 |
| 20260504205941 | 52 | 306 | 0.0 | 0.0 | 0.00 | 0.01 | 0.01 | 94 | 1013.3 |
| 20260504204503 | 52 | 169 | 0.0 | 0.0 | 0.00 | 0.01 | 0.01 | 93 | 1013.3 |
| 20260504203503 | 52 | 278 | 0.0 | 0.0 | 0.00 | 0.01 | 0.01 | 93 | 1013.4 |
| 20260504202940 | 52 | 344 | 0.0 | 0.0 | 0.00 | 0.01 | 0.01 | 93 | 1013.5 |
| 20260504201501 | 52 | 296 | 0.0 | 0.0 | 0.00 | 0.04 | 0.01 | 93 | 1013.6 |
| 20260504200943 | 52 | 150 | 0.0 | 0.0 | 0.00 | 0.09 | 0.01 | 92 | 1013.6 |
| 20260504195457 | 52 | 339 | 0.0 | 0.0 | 0.00 | 0.12 | 0.01 | 92 | 1013.3 |
| 20260504194456 | 52 | 347 | 0.0 | 0.0 | 0.00 | 0.13 | 0.01 | 92 | 1013.1 |
| 20260504193456 | 52 | 323 | 0.0 | 0.0 | 0.00 | 0.16 | 0.01 | 92 | 1013.0 |
| 20260504192455 | 52 | 339 | 0.0 | 0.0 | 0.00 | 0.16 | 0.01 | 92 | 1013.1 |
| 20260504191455 | 52 | 298 | 0.0 | 0.0 | 0.00 | 0.16 | 0.01 | 92 | 1013.1 |
| 20260504190945 | 52 | 296 | 0.0 | 0.0 | 0.00 | 0.16 | 0.01 | 92 | 1013.1 |
| 20260504185458 | 52 | 246 | 0.0 | 0.0 | 0.00 | 0.16 | 0.01 | 92 | 1013.1 |
| 20260504184453 | 52 | 327 | 0.0 | 0.0 | 0.00 | 0.16 | 0.01 | 91 | 1013.2 |
| 20260504183453 | 52 | 13 | 0.0 | 0.0 | 0.00 | 0.16 | 0.01 | 91 | 1013.2 |
| 20260504182939 | 52 | 265 | 0.0 | 0.0 | 0.00 | 0.16 | 0.01 | 91 | 1012.9 |
| 20260504181455 | 53 | 331 | 0.0 | 0.0 | 0.00 | 0.16 | 0.01 | 91 | 1013.0 |
| 20260504180456 | 53 | 295 | 0.0 | 0.0 | 0.00 | 0.16 | 0.01 | 91 | 1013.1 |
| 20260504175450 | 53 | 343 | 0.0 | 0.0 | 0.00 | 0.16 | 0.01 | 90 | 1013.0 |
| 20260504174451 | 53 | 275 | 0.0 | 0.0 | 0.00 | 0.16 | 0.01 | 90 | 1013.1 |
| 20260504173449 | 53 | 314 | 0.0 | 0.0 | 0.00 | 0.16 | 0.01 | 91 | 1013.0 |
| 20260504172447 | 53 | 295 | 0.0 | 0.0 | 0.00 | 0.16 | 0.01 | 90 | 1013.0 |
| 20260504171920 | 53 | 346 | 0.0 | 0.0 | 0.00 | 0.16 | 0.01 | 90 | 1012.9 |
| 20260504170447 | 53 | 274 | 0.0 | 0.0 | 0.00 | 0.16 | 0.01 | 90 | 1013.1 |
| 20260504160447 | 55 | 328 | 0.0 | 0.0 | 0.00 | 0.16 | 0.01 | 90 | 1012.8 |
| 20260504150447 | 57 | 268 | 0.0 | 0.0 | 0.01 | 0.17 | 0.01 | 87 | 1012.9 |
| 20260504140443 | 62 | 242 | 0.0 | 0.0 | 0.00 | 0.42 | 0.00 | 83 | 1013.0 |
| 20260504130440 | 61 | 318 | 0.0 | 0.0 | 0.00 | 0.42 | 0.00 | 81 | 1013.2 |